| time (UTC) | temp F | wind direction | speed MPH | gust MPH | rain 1hr in | rain 24hr in | rain mn in | humidity % | barometer mb |
| 20260506013058 | 32 | 0 | 0.0 | 0.0 | 0.00 | 0.00 | 0.00 | 89 | 1014.7 |
| 20260506011556 | 32 | 0 | 0.0 | 0.0 | 0.00 | 0.00 | 0.00 | 88 | 1014.7 |
| 20260506010038 | 32 | 0 | 0.0 | 0.0 | 0.00 | 0.00 | 0.00 | 88 | 1014.7 |
| 20260506004543 | 33 | 0 | 0.0 | 0.0 | 0.00 | 0.00 | 0.00 | 86 | 1014.6 |
| 20260506003041 | 35 | 0 | 0.0 | 0.0 | 0.00 | 0.00 | 0.00 | 83 | 1014.6 |
| 20260506001544 | 36 | 0 | 0.0 | 0.0 | 0.00 | 0.00 | 0.00 | 83 | 1014.8 |
| 20260506000040 | 37 | 0 | 0.0 | 0.0 | 0.00 | 0.00 | 0.00 | 81 | 1014.7 |
| 20260505234539 | 36 | 0 | 0.0 | 0.0 | 0.00 | 0.00 | 0.00 | 83 | 1014.8 |
| 20260505233036 | 36 | 0 | 0.0 | 0.0 | 0.00 | 0.00 | 0.00 | 82 | 1014.7 |
| 20260505231538 | 36 | 0 | 0.0 | 0.0 | 0.00 | 0.00 | 0.00 | 83 | 1014.8 |
| 20260505230054 | 36 | 0 | 0.0 | 0.0 | 0.00 | 0.00 | 0.00 | 83 | 1014.7 |
| 20260505224540 | 36 | 0 | 0.0 | 0.0 | 0.00 | 0.00 | 0.00 | 83 | 1014.8 |
| 20260505223053 | 36 | 0 | 0.0 | 0.0 | 0.00 | 0.00 | 0.00 | 83 | 1014.7 |
| 20260505221539 | 36 | 0 | 0.0 | 0.0 | 0.00 | 0.00 | 0.00 | 82 | 1014.7 |
| 20260505220042 | 37 | 0 | 0.0 | 0.0 | 0.00 | 0.00 | 0.00 | 81 | 1014.7 |
| 20260505214536 | 37 | 0 | 0.0 | 0.0 | 0.00 | 0.00 | 0.00 | 80 | 1014.7 |
| 20260505213053 | 38 | 0 | 0.0 | 0.0 | 0.00 | 0.00 | 0.00 | 80 | 1014.7 |
| 20260505211542 | 38 | 0 | 0.0 | 0.0 | 0.00 | 0.00 | 0.00 | 78 | 1014.9 |
| 20260505210040 | 38 | 0 | 0.0 | 0.0 | 0.00 | 0.00 | 0.00 | 77 | 1014.9 |
| 20260505204540 | 39 | 0 | 0.0 | 0.0 | 0.00 | 0.00 | 0.00 | 74 | 1014.9 |
| 20260505203050 | 40 | 0 | 0.0 | 0.0 | 0.00 | 0.00 | 0.00 | 73 | 1014.8 |
| 20260505201542 | 41 | 0 | 0.0 | 4.0 | 0.00 | 0.00 | 0.00 | 71 | 1014.8 |
| 20260505200039 | 42 | 0 | 0.0 | 11.0 | 0.00 | 0.00 | 0.00 | 70 | 1014.7 |
| 20260505194540 | 42 | 0 | 2.0 | 14.0 | 0.00 | 0.00 | 0.00 | 69 | 1014.7 |
| 20260505193037 | 43 | 0 | 5.0 | 12.0 | 0.00 | 0.00 | 0.00 | 68 | 1014.7 |
| 20260505191544 | 43 | 277 | 3.0 | 9.0 | 0.00 | 0.00 | 0.00 | 69 | 1014.6 |
| 20260505190040 | 43 | 273 | 2.0 | 13.0 | 0.00 | 0.00 | 0.00 | 72 | 1014.6 |
| 20260505184540 | 43 | 0 | 5.0 | 18.0 | 0.00 | 0.00 | 0.00 | 71 | 1014.5 |
| 20260505183038 | 44 | 281 | 6.0 | 17.0 | 0.00 | 0.00 | 0.00 | 67 | 1014.2 |
| 20260505181539 | 45 | 249 | 6.0 | 15.0 | 0.00 | 0.00 | 0.00 | 69 | 1014.2 |
| 20260505180038 | 46 | 271 | 7.0 | 17.0 | 0.00 | 0.00 | 0.00 | 68 | 1014.2 |
| 20260505174548 | 47 | 286 | 8.0 | 15.0 | 0.00 | 0.00 | 0.00 | 67 | 1014.2 |
| 20260505173046 | 47 | 267 | 10.0 | 17.0 | 0.00 | 0.00 | 0.00 | 66 | 1014.2 |
| 20260505171539 | 46 | 277 | 9.0 | 19.0 | 0.00 | 0.00 | 0.00 | 61 | 1014.4 |
| 20260505170039 | 48 | 287 | 12.0 | 20.0 | 0.00 | 0.00 | 0.00 | 59 | 1014.3 |
| 20260505164549 | 48 | 286 | 9.0 | 18.0 | 0.00 | 0.00 | 0.00 | 61 | 1014.2 |
| 20260505163049 | 49 | 277 | 8.0 | 20.0 | 0.00 | 0.00 | 0.00 | 59 | 1014.1 |
| 20260505161544 | 49 | 291 | 12.0 | 22.0 | 0.00 | 0.00 | 0.00 | 59 | 1014.2 |
| 20260505153049 | 48 | 314 | 2.0 | 19.0 | 0.00 | 0.00 | 0.00 | 56 | 1014.1 |
| 20260505151554 | 49 | 261 | 9.0 | 17.0 | 0.00 | 0.00 | 0.00 | 61 | 1014.1 |
| 20260505124540 | 50 | 279 | 9.0 | 18.0 | 0.00 | 0.00 | 0.00 | 58 | 1014.2 |
| 20260505123037 | 49 | 280 | 11.0 | 18.0 | 0.00 | 0.00 | 0.00 | 60 | 1014.0 |
| 20260505121537 | 48 | 283 | 9.0 | 16.0 | 0.00 | 0.00 | 0.00 | 61 | 1014.0 |
| 20260505120041 | 48 | 280 | 7.0 | 17.0 | 0.00 | 0.00 | 0.00 | 60 | 1014.1 |
| 20260505114548 | 50 | 0 | 8.0 | 15.0 | 0.00 | 0.00 | 0.00 | 56 | 1014.0 |
| 20260505113046 | 50 | 224 | 6.0 | 15.0 | 0.00 | 0.00 | 0.00 | 60 | 1014.0 |
| 20260505111549 | 50 | 0 | 3.0 | 12.0 | 0.00 | 0.00 | 0.00 | 59 | 1014.0 |
| 20260505101539 | 46 | 290 | 3.0 | 15.0 | 0.00 | 0.00 | 0.00 | 66 | 1014.1 |
| 20260505100048 | 46 | 263 | 7.0 | 23.0 | 0.00 | 0.00 | 0.00 | 65 | 1014.1 |
| 20260505094536 | 47 | 280 | 0.0 | 9.0 | 0.00 | 0.00 | 0.00 | 59 | 1013.8 |
| 20260505093035 | 48 | 271 | 3.0 | 10.0 | 0.00 | 0.00 | 0.00 | 57 | 1013.9 |
| 20260505091554 | 49 | 0 | 3.0 | 8.0 | 0.00 | 0.00 | 0.00 | 57 | 1013.8 |
| 20260505090053 | 48 | 281 | 3.0 | 8.0 | 0.00 | 0.00 | 0.00 | 57 | 1013.8 |
| 20260505084539 | 47 | 0 | 1.0 | 9.0 | 0.00 | 0.00 | 0.00 | 59 | 1013.6 |
| 20260505083042 | 47 | 269 | 2.0 | 8.0 | 0.00 | 0.00 | 0.00 | 61 | 1013.6 |
| 20260505081555 | 48 | 0 | 0.0 | 8.0 | 0.00 | 0.00 | 0.00 | 60 | 1013.5 |
| 20260505080046 | 47 | 0 | 0.0 | 4.0 | 0.00 | 0.00 | 0.00 | 61 | 1013.5 |
| 20260505074559 | 46 | 0 | 0.0 | 3.0 | 0.00 | 0.00 | 0.00 | 64 | 1013.5 |
| 20260505073038 | 45 | 0 | 0.0 | 4.0 | 0.00 | 0.00 | 0.00 | 67 | 1013.4 |
| 20260505071536 | 44 | 0 | 0.0 | 0.0 | 0.00 | 0.00 | 0.00 | 70 | 1013.6 |
| 20260505070036 | 42 | 0 | 0.0 | 1.0 | 0.00 | 0.00 | 0.00 | 72 | 1013.5 |
| 20260505064541 | 42 | 0 | 1.0 | 4.0 | 0.00 | 0.00 | 0.00 | 72 | 1013.4 |
| 20260505063043 | 41 | 0 | 0.0 | 0.0 | 0.00 | 0.00 | 0.00 | 74 | 1013.4 |
| 20260505061601 | 40 | 0 | 0.0 | 0.0 | 0.00 | 0.00 | 0.00 | 77 | 1013.5 |
| 20260505060044 | 39 | 0 | 0.0 | 0.0 | 0.00 | 0.00 | 0.00 | 81 | 1013.6 |
| 20260505054541 | 37 | 0 | 0.0 | 0.0 | 0.00 | 0.00 | 0.00 | 88 | 1013.5 |
| 20260505053044 | 35 | 0 | 0.0 | 0.0 | 0.00 | 0.00 | 0.00 | 92 | 1013.5 |
| 20260505051541 | 33 | 0 | 0.0 | 0.0 | 0.00 | 0.00 | 0.00 | 92 | 1013.6 |
| 20260505041542 | 31 | 0 | 0.0 | 0.0 | 0.00 | 0.00 | 0.00 | 91 | 1012.8 |
| 20260505040041 | 31 | 0 | 0.0 | 0.0 | 0.00 | 0.00 | 0.00 | 91 | 1012.7 |
| 20260505034540 | 31 | 0 | 0.0 | 0.0 | 0.00 | 0.00 | 0.00 | 91 | 1013.0 |
| 20260505033046 | 31 | 0 | 0.0 | 0.0 | 0.00 | 0.00 | 0.00 | 91 | 1013.1 |
| 20260505031535 | 32 | 0 | 0.0 | 0.0 | 0.00 | 0.00 | 0.00 | 90 | 1013.1 |
| 20260505030043 | 32 | 0 | 0.0 | 0.0 | 0.00 | 0.00 | 0.00 | 90 | 1013.0 |
| 20260505024602 | 32 | 0 | 0.0 | 0.0 | 0.00 | 0.00 | 0.00 | 90 | 1013.1 |
| 20260505023042 | 32 | 0 | 0.0 | 0.0 | 0.00 | 0.00 | 0.00 | 88 | 1013.0 |
| 20260505021602 | 33 | 0 | 0.0 | 1.0 | 0.00 | 0.00 | 0.00 | 88 | 1013.0 |
| 20260505020044 | 33 | 0 | 0.0 | 0.0 | 0.00 | 0.00 | 0.00 | 87 | 1013.1 |
| 20260505014546 | 34 | 0 | 0.0 | 0.0 | 0.00 | 0.00 | 0.00 | 86 | 1013.0 |